Temp
32 32 32 34 33 27 29 31 30 33 36 34 29 32 31 31 31 29 28 26 26 25 24 22 21 21 20 20 20 20 19 19 19 19 18 19 19 20 20 21 21 20 20 19
33 32 34 36 36 31 31 30 34 35 36 35 34 33 32 32 32 31 30 28 27 26 25 24 22 21 20 21 21 20 19 19 19 19 19 19 20 20 21 21 21 21 20 19
32 34 35 36 35 35 35 36 35 35 35 36 36 34 33 33 33 32 31 30 29 28 26 24 23 23 22 21 21 20 20 19 19 20 19 19 20 20 21 21 21 21 21 19
33 35 35 35 35 36 35 36 36 36 35 34 36 33 33 33 33 33 32 31 30 29 27 25 24 23 23 22 21 20 20 20 21 20 20 19 19 20 20 21 21 22 21 20
33 34 35 35 36 36 35 37 36 36 35 35 35 33 34 34 33 33 33 32 31 30 28 26 25 23 23 23 22 21 20 20 20 21 21 20 19 20 20 21 21 21 21 21
34 35 36 36 37 37 37 36 36 36 35 33 35 34 33 34 34 34 34 33 32 31 29 28 26 25 24 23 23 22 21 21 21 20 22 21 20 20 20 20 21 21 21 21
33 34 36 37 36 36 36 35 33 32 33 33 37 34 34 36 36 36 35 34 33 31 31 29 27 26 24 24 24 23 22 22 23 22 22 23 22 21 21 21 21 21 21 22
32 32 35 36 36 35 35 35 33 31 32 34 36 35 35 38 37 37 36 35 34 33 32 30 29 27 25 25 24 24 23 23 23 23 23 23 23 22 22 22 22 21 20 21
33 32 36 36 36 36 35 34 36 34 36 35 36 37 37 38 37 37 37 36 35 34 33 31 30 28 27 26 25 24 24 24 24 24 23 23 23 23 22 21 20 20 20 21
34 32 35 36 36 36 35 36 33 35 31 32 35 35 35 36 37 37 37 37 35 34 34 32 31 30 28 27 26 25 24 24 24 23 23 22 22 22 22 21 20 20 20 20
34 34 34 35 34 34 34 35 35 35 35 33 33 34 38 36 37 37 38 37 36 35 34 33 32 30 29 28 27 26 25 24 24 23 21 21 20 20 20 20 20 19 19 19
34 34 33 34 36 36 35 35 35 34 32 35 35 35 39 38 38 38 37 37 37 36 35 34 33 32 30 29 28 27 26 25 24 23 21 21 20 20 20 20 19 19 19 18
34 33 33 33 35 35 34 35 35 36 35 34 34 35 39 38 38 37 37 37 36 36 36 35 34 32 30 30 29 28 27 26 24 23 22 21 20 20 20 20 20 19 18 17
33 34 33 33 34 35 33 35 36 35 34 35 35 35 37 37 37 37 37 36 36 35 35 35 34 33 31 30 29 28 27 26 24 22 21 21 20 20 20 19 18 17 16 16
34 31 33 34 36 36 35 35 35 35 35 35 36 36 36 36 37 37 36 35 35 34 34 33 32 31 30 29 28 27 26 25 23 22 20 20 20 19 18 17 16 17 17 17
35 31 33 33 35 36 35 35 35 35 36 36 36 37 38 37 37 37 36 35 34 34 33 31 30 29 28 27 27 26 24 23 22 20 20 20 19 17 17 19 20 20 19 18
33 33 31 31 33 34 34 35 35 36 36 36 35 37 38 37 37 36 35 34 33 33 32 30 29 27 26 25 25 24 23 21 20 20 20 19 18 19 20 20 19 18 16 14
31 30 31 31 31 30 34 37 37 36 36 37 37 37 37 37 37 37 36 34 33 32 31 30 28 26 24 23 22 21 20 20 20 19 17 18 19 20 19 17 18 17 14 14
33 31 30 30 30 31 34 35 36 35 35 37 36 37 37 37 37 36 36 36 35 33 31 30 27 25 23 22 21 20 20 19 17 17 18 19 19 17 16 17 17 16 14 14
33 31 30 30 30 29 33 35 36 37 33 37 37 37 37 37 35 36 35 35 35 33 30 28 26 24 22 21 20 20 19 17 17 18 18 17 16 15 16 17 17 16 13 13
30 30 29 30 29 31 34 36 36 32 33 36 36 35 35 35 35 36 35 34 34 32 29 27 24 23 21 20 20 18 17 17 17 17 16 16 16 16 16 17 17 14 13 13
28 28 30 30 29 29 35 35 33 35 35 35 35 35 35 34 34 34 33 31 29 27 25 24 23 21 20 19 19 17 17 16 16 16 15 16 16 15 16 17 15 14 12 12
27 29 30 30 30 33 34 34 34 35 34 34 34 34 35 34 34 34 31 28 27 25 24 22 21 20 20 18 18 17 16 15 15 15 16 14 13 14 16 16 13 13 13 12
29 30 29 29 31 32 33 33 33 33 34 34 33 34 34 34 34 32 29 26 25 24 22 21 20 19 18 17 17 15 15 15 15 16 15 14 14 15 14 12 12 12 11 11
30 29 28 28 29 30 31 32 33 33 32 32 32 32 32 32 33 29 27 25 23 22 21 20 19 19 17 17 16 15 14 15 15 15 14 13 13 13 13 12 13 13 12 12
31 29 29 28 29 29 30 31 32 32 32 32 32 31 31 31 29 27 25 23 22 21 21 19 18 18 16 15 14 14 15 15 15 14 13 13 13 14 13 13 12 12 11 10
Height
1481 1484 1483 1469 1473 1502 1492 1502 1504 1486 1470 1477 1499 1496 1499 1506 1509 1516 1523 1529 1533 1536 1540 1545 1549 1554 1558 1561 1564 1566 1569 1571 1574 1575 1577 1579 1580 1582 1583 1584 1583 1580 1579 1578
1478 1481 1468 1462 1464 1483 1489 1488 1480 1471 1468 1474 1478 1488 1492 1499 1502 1508 1515 1523 1527 1532 1538 1542 1545 1550 1553 1556 1560 1563 1566 1569 1571 1573 1575 1578 1580 1581 1581 1580 1579 1579 1578 1577
1474 1467 1463 1460 1463 1470 1463 1459 1467 1474 1471 1468 1470 1485 1489 1494 1497 1502 1508 1516 1521 1526 1532 1538 1542 1546 1549 1552 1555 1558 1561 1564 1567 1570 1574 1576 1577 1578 1578 1578 1577 1576 1577 1577
1467 1457 1459 1458 1462 1461 1466 1459 1460 1466 1475 1490 1468 1503 1483 1485 1492 1496 1503 1511 1516 1522 1528 1533 1538 1542 1546 1549 1552 1555 1558 1561 1563 1567 1570 1572 1574 1575 1576 1576 1576 1577 1577 1578
1463 1457 1456 1458 1454 1454 1461 1449 1458 1465 1471 1472 1473 1491 1480 1477 1490 1491 1496 1503 1510 1517 1522 1528 1533 1537 1542 1546 1549 1551 1554 1556 1559 1562 1565 1568 1570 1571 1573 1573 1574 1575 1576 1575
1452 1450 1447 1450 1448 1450 1452 1457 1459 1464 1470 1492 1468 1479 1487 1477 1479 1481 1487 1495 1503 1511 1518 1523 1529 1534 1538 1542 1546 1548 1550 1552 1555 1558 1560 1562 1565 1568 1569 1570 1571 1572 1573 1571
1451 1446 1444 1443 1450 1450 1454 1464 1493 1503 1499 1496 1452 1473 1471 1460 1464 1471 1479 1488 1497 1504 1512 1518 1523 1528 1533 1537 1541 1544 1545 1548 1551 1553 1555 1558 1561 1564 1565 1566 1567 1569 1570 1571
1458 1467 1440 1439 1445 1456 1457 1459 1482 1514 1500 1479 1451 1474 1465 1450 1456 1463 1471 1480 1489 1499 1506 1512 1518 1523 1526 1532 1536 1540 1540 1544 1547 1550 1552 1555 1558 1561 1563 1564 1564 1565 1566 1568
1449 1453 1436 1436 1440 1446 1456 1465 1453 1469 1455 1469 1461 1452 1446 1447 1454 1460 1464 1472 1482 1490 1498 1506 1512 1517 1522 1527 1531 1535 1537 1540 1544 1546 1550 1552 1555 1557 1560 1561 1562 1562 1562 1563
1429 1453 1431 1434 1437 1443 1446 1446 1475 1464 1496 1499 1466 1463 1464 1451 1453 1457 1461 1465 1473 1482 1491 1498 1506 1511 1517 1523 1527 1532 1534 1536 1540 1543 1546 1549 1552 1555 1557 1558 1558 1559 1560 1558
1423 1429 1437 1431 1439 1449 1452 1453 1454 1457 1461 1482 1488 1474 1432 1441 1445 1451 1456 1462 1467 1475 1483 1490 1498 1505 1512 1518 1523 1527 1532 1532 1536 1540 1543 1546 1549 1552 1553 1555 1557 1557 1557 1556
1417 1423 1436 1431 1424 1432 1438 1447 1449 1467 1476 1456 1457 1461 1419 1431 1440 1444 1452 1458 1463 1470 1477 1484 1490 1498 1505 1512 1518 1522 1527 1530 1532 1537 1541 1545 1548 1550 1552 1554 1553 1555 1555 1555
1413 1423 1437 1433 1425 1425 1437 1437 1441 1443 1448 1461 1471 1462 1424 1432 1438 1445 1450 1456 1462 1467 1473 1479 1486 1492 1499 1506 1512 1517 1521 1526 1530 1534 1538 1542 1545 1549 1549 1550 1552 1552 1552 1552
1410 1415 1423 1433 1421 1422 1440 1434 1433 1440 1456 1454 1450 1447 1436 1435 1440 1447 1451 1456 1462 1467 1472 1477 1483 1489 1495 1500 1507 1513 1518 1522 1527 1530 1534 1539 1541 1542 1546 1548 1549 1550 1552 1552
1402 1420 1414 1412 1406 1411 1423 1431 1427 1436 1436 1448 1438 1439 1443 1438 1441 1444 1451 1455 1463 1468 1473 1477 1482 1487 1492 1497 1503 1510 1515 1518 1521 1526 1530 1533 1536 1540 1542 1544 1546 1547 1548 1548
1393 1413 1414 1419 1408 1405 1416 1420 1424 1426 1429 1432 1429 1431 1424 1429 1433 1441 1447 1453 1461 1467 1473 1477 1481 1486 1491 1495 1501 1505 1509 1513 1517 1520 1524 1528 1532 1535 1536 1537 1539 1539 1539 1538
1393 1403 1418 1429 1412 1412 1422 1410 1416 1421 1420 1425 1436 1425 1421 1427 1432 1438 1445 1452 1459 1465 1471 1476 1481 1485 1489 1493 1498 1502 1506 1509 1513 1518 1521 1524 1527 1530 1533 1535 1535 1537 1538 1542
1392 1403 1407 1424 1424 1445 1407 1392 1400 1412 1415 1416 1419 1419 1420 1425 1431 1435 1440 1447 1455 1460 1466 1473 1479 1484 1488 1492 1497 1500 1504 1507 1512 1516 1519 1522 1525 1528 1529 1530 1532 1533 1537 1535
1378 1395 1411 1424 1427 1420 1406 1397 1401 1408 1413 1411 1415 1417 1419 1424 1429 1433 1438 1444 1450 1454 1457 1464 1472 1480 1487 1491 1494 1495 1501 1507 1510 1514 1517 1521 1524 1526 1528 1529 1530 1531 1533 1534
1378 1390 1407 1418 1427 1431 1405 1395 1397 1399 1421 1403 1409 1414 1416 1422 1432 1432 1436 1440 1447 1453 1455 1461 1468 1475 1485 1489 1491 1495 1500 1505 1509 1512 1515 1519 1522 1525 1527 1526 1527 1529 1532 1533
1385 1391 1406 1409 1417 1405 1392 1393 1396 1423 1422 1405 1410 1414 1418 1421 1427 1432 1434 1438 1443 1448 1454 1459 1466 1473 1481 1486 1491 1495 1500 1504 1507 1510 1513 1517 1520 1523 1524 1524 1525 1528 1530 1531
1389 1397 1399 1404 1415 1425 1386 1389 1402 1397 1400 1406 1409 1414 1419 1424 1428 1433 1435 1436 1441 1447 1454 1460 1466 1472 1478 1484 1491 1496 1502 1506 1508 1510 1513 1517 1520 1521 1522 1522 1524 1526 1528 1529
1400 1389 1393 1395 1398 1388 1388 1389 1391 1393 1396 1404 1409 1412 1415 1420 1425 1430 1433 1438 1441 1447 1455 1462 1467 1470 1479 1485 1491 1496 1499 1503 1507 1510 1514 1517 1519 1520 1521 1521 1524 1527 1529 1531
1384 1387 1390 1396 1390 1389 1391 1391 1392 1394 1396 1402 1408 1411 1413 1416 1419 1422 1429 1437 1442 1447 1453 1461 1465 1471 1478 1484 1490 1493 1498 1503 1507 1511 1514 1517 1519 1520 1521 1523 1524 1525 1527 1527
1376 1386 1393 1393 1392 1392 1393 1393 1393 1395 1399 1402 1405 1408 1411 1414 1414 1415 1426 1434 1441 1446 1454 1458 1463 1470 1477 1483 1487 1491 1496 1502 1507 1511 1514 1516 1518 1517 1518 1520 1522 1523 1525 1527
1369 1378 1388 1391 1391 1393 1392 1394 1394 1397 1399 1402 1404 1408 1411 1414 1415 1416 1424 1431 1438 1446 1454 1457 1463 1469 1475 1479 1484 1491 1496 1501 1505 1509 1512 1514 1515 1515 1518 1519 1521 1523 1525 1525
Wind_Speed
23 14 16 21 19 25 28 14 25 19 12 5 4 17 18 19 19 21 20 20 18 18 20 24 23 23 22 24 26 24 24 21 21 21 15 8 7 5 7 9 11 13 12 7
19 19 21 20 14 28 9 24 14 15 9 2 14 20 18 19 17 20 22 21 20 20 20 21 25 26 24 27 28 26 27 26 23 22 16 12 11 10 13 12 13 17 13 10
22 22 24 20 16 18 20 13 7 11 9 8 9 19 18 18 16 20 21 21 21 22 23 24 25 27 25 25 29 29 30 28 28 22 16 15 18 18 16 15 12 10 9 10
22 26 23 22 16 15 16 11 6 10 7 6 12 6 15 19 15 17 22 23 22 24 24 27 27 27 27 26 26 24 25 28 28 26 24 16 17 13 11 12 13 10 8 13
25 25 24 22 18 17 12 11 13 7 6 9 15 5 12 19 17 17 22 25 24 25 26 26 26 27 26 24 25 25 26 23 24 25 26 25 21 18 16 14 13 13 15 13
27 33 24 22 13 16 11 8 4 2 9 10 13 7 8 17 16 19 24 26 27 26 26 27 26 26 25 24 23 23 24 23 21 24 22 25 23 19 17 14 15 14 14 13
28 30 26 26 20 19 20 16 6 8 10 11 12 12 9 17 19 18 20 28 27 30 28 29 30 31 28 28 26 25 25 22 21 21 23 20 23 23 21 17 20 18 14 11
21 24 29 24 20 20 21 18 11 10 11 13 6 7 7 16 18 24 27 28 29 29 29 29 31 32 31 31 29 27 27 23 21 21 20 19 17 19 21 20 20 18 16 15
22 27 27 27 18 22 22 19 15 20 17 9 8 6 17 17 17 14 26 30 31 31 31 32 32 33 33 31 32 31 29 25 21 22 21 20 19 18 17 14 15 18 16 18
20 17 25 28 17 23 23 16 18 14 17 14 10 13 10 15 13 12 10 24 32 34 32 34 32 34 32 31 30 29 29 28 23 19 21 20 19 18 18 21 23 20 20 22
30 20 22 23 22 25 18 20 16 19 15 14 5 9 14 16 14 14 17 17 28 34 33 35 33 35 33 29 28 29 29 28 23 20 19 18 16 12 12 12 11 11 14 16
29 16 16 30 25 26 24 23 22 13 19 14 10 11 14 17 15 15 11 11 21 32 31 34 33 35 35 30 29 29 27 29 26 20 16 18 15 11 9 10 11 12 12 15
25 21 14 20 24 24 27 25 24 20 18 17 11 2 17 16 14 16 12 13 16 20 27 28 31 34 35 31 30 29 28 27 24 19 18 17 14 11 15 14 14 14 10 3
31 22 17 16 18 20 23 25 27 25 16 17 17 8 6 13 12 12 7 18 15 18 17 18 24 27 31 33 29 27 28 25 24 21 18 15 16 18 15 13 12 6 3 3
25 23 22 23 20 25 24 26 25 25 21 19 18 15 14 11 10 16 17 23 18 17 16 19 20 22 26 30 30 24 28 25 25 23 20 23 23 16 13 12 9 7 5 4
27 20 21 24 25 21 28 28 27 26 25 23 23 17 19 26 24 15 21 24 18 20 17 20 22 23 25 27 29 28 28 28 25 27 27 26 21 19 16 11 8 6 6 3
22 18 19 20 24 23 21 27 28 25 25 24 20 17 12 8 9 16 21 22 23 21 18 23 23 24 25 27 30 29 29 30 30 30 29 24 23 18 14 11 8 4 2 2
19 18 15 16 18 24 16 18 24 25 23 23 21 19 14 7 8 16 16 27 26 28 26 26 26 26 26 27 29 31 32 31 29 27 27 24 21 17 16 13 8 4 3 0
23 13 12 14 17 18 25 21 16 18 20 24 22 17 18 19 10 14 14 11 9 30 35 34 30 30 27 29 33 35 32 29 29 28 26 23 20 19 16 10 6 3 4 4
22 15 12 15 22 27 17 21 21 15 11 11 15 16 14 14 8 5 15 10 11 17 34 35 33 30 30 32 35 35 33 33 31 28 25 23 20 17 13 8 4 5 3 2
18 16 17 15 14 16 17 21 23 18 8 11 16 9 10 9 7 9 8 15 17 27 33 34 32 33 32 35 34 34 34 32 30 28 27 24 21 15 11 6 5 7 11 2
11 11 13 15 15 17 16 20 24 7 16 11 18 22 18 19 17 12 5 21 28 32 32 33 34 33 35 34 33 32 31 30 30 28 26 21 16 14 10 5 7 8 8 8
14 11 11 12 13 2 16 16 17 11 11 11 12 12 22 20 24 26 17 25 28 30 32 30 32 35 30 30 32 32 30 31 28 26 21 20 19 12 7 8 11 11 11 7
16 19 11 9 10 18 11 10 9 4 19 20 17 18 16 15 23 21 28 28 29 31 34 31 31 33 32 31 31 31 30 30 27 22 22 20 14 13 13 12 14 11 10 9
15 13 15 13 15 15 16 17 14 7 3 3 3 4 8 14 15 31 33 31 31 33 32 32 33 32 33 31 30 27 30 27 24 21 18 16 16 17 19 15 7 5 6 4
15 17 13 10 16 15 12 22 14 9 9 6 6 7 9 12 20 32 33 33 33 32 30 32 32 32 34 32 28 27 28 25 22 19 17 14 13 13 14 10 7 8 8 8
Wind_Direction
221 231 234 241 141 181 237 227 206 221 171 133 325 146 155 177 174 163 167 172 182 177 180 181 187 188 192 198 200 206 206 210 204 216 216 237 244 270 274 278 289 297 310 309
224 223 230 242 181 174 123 251 175 138 160 239 169 152 157 174 185 166 170 171 179 177 174 179 187 185 192 192 204 211 213 210 221 220 224 214 232 246 252 245 251 273 310 299
219 216 233 234 208 212 232 210 118 128 168 242 171 151 153 172 179 161 173 171 177 175 173 179 185 188 194 198 209 215 217 219 223 225 230 231 233 235 240 261 297 317 295 308
217 231 219 236 221 211 243 105 212 134 218 215 199 171 166 164 181 166 171 171 179 174 175 181 187 191 196 200 212 220 221 222 228 229 225 227 246 257 275 277 280 269 256 285
214 228 220 232 223 200 247 193 169 208 261 242 186 194 178 164 181 178 177 174 180 180 181 183 189 194 196 197 206 212 222 227 222 229 230 229 229 240 244 252 257 270 279 292
226 219 233 220 222 235 221 265 55 249 258 250 240 145 187 173 180 179 182 176 177 181 184 183 190 194 195 198 201 212 220 224 222 220 228 227 225 241 241 236 256 259 274 282
217 230 222 232 225 206 233 211 196 224 231 242 229 174 154 184 176 180 177 175 180 175 183 182 186 191 195 196 200 206 222 222 220 221 227 230 229 231 238 240 238 248 264 285
211 218 225 220 223 215 225 230 229 217 227 234 200 166 138 160 169 176 176 179 176 181 183 187 188 192 199 197 199 203 219 225 220 221 224 229 231 233 242 251 256 259 257 261
205 219 219 217 198 230 215 230 244 246 246 268 166 180 158 158 161 169 177 174 177 179 182 187 190 192 196 198 202 204 217 228 229 227 226 229 235 238 245 258 264 269 280 272
225 212 218 216 197 222 238 212 228 247 261 273 235 189 207 167 160 171 194 179 175 177 183 183 190 192 194 199 202 207 213 229 234 237 231 234 239 245 245 241 247 253 260 275
228 212 209 218 201 217 217 236 215 241 241 245 188 256 194 164 177 196 188 196 178 178 184 184 187 190 191 197 200 206 208 223 231 235 223 234 242 254 257 263 268 266 267 272
223 228 222 210 200 212 212 222 230 224 242 264 293 309 158 162 175 182 170 204 194 181 186 185 185 184 186 192 197 201 206 214 227 231 216 219 227 233 243 252 250 260 273 288
211 232 227 222 204 194 218 219 223 228 237 249 247 176 155 165 156 157 167 179 189 189 188 183 182 179 184 189 195 198 201 206 213 209 201 200 206 214 223 229 248 264 272 270
208 226 233 226 215 186 202 221 212 224 220 236 235 157 185 147 134 146 182 159 187 185 188 173 170 177 183 186 187 192 188 194 192 193 192 193 200 205 219 228 241 205 175 207
208 217 230 238 233 198 199 220 218 217 218 228 234 185 202 153 177 165 184 155 174 181 187 174 169 167 173 178 181 179 180 185 190 187 182 192 194 195 193 194 181 188 187 261
205 213 226 230 242 234 204 204 224 214 228 237 237 250 170 175 177 177 173 152 165 176 177 170 173 178 182 181 180 180 180 185 186 182 187 192 199 185 185 182 180 209 234 243
204 212 205 227 236 245 241 205 205 228 215 228 236 247 256 139 156 164 143 158 175 180 186 177 180 185 189 187 181 181 183 183 184 186 188 191 177 178 172 173 180 193 208 312
199 211 194 215 236 241 241 234 207 214 227 238 235 239 248 259 196 185 182 173 179 180 182 184 183 184 187 181 177 174 179 183 183 186 175 175 175 170 175 176 170 167 226 341
188 197 204 209 222 235 240 241 225 234 210 214 241 247 243 254 258 174 186 203 209 195 183 186 185 182 181 176 175 181 178 178 173 171 175 174 174 173 173 167 155 152 196 106
185 189 211 214 223 221 217 234 226 246 252 202 225 230 224 219 224 224 182 184 238 183 174 174 180 177 174 175 178 177 176 175 176 177 173 172 172 174 173 158 150 135 178 141
198 180 202 218 227 232 217 232 227 231 237 220 244 246 230 241 265 261 195 213 212 182 174 173 170 167 173 177 183 175 174 177 179 176 174 173 178 172 169 149 151 150 164 169
207 202 193 216 217 228 239 222 225 218 181 221 217 224 227 233 253 271 195 139 153 154 156 163 160 166 176 181 182 174 173 179 180 175 173 173 163 161 155 152 137 136 131 74
216 236 205 213 220 276 231 258 282 177 166 213 246 269 214 221 223 237 164 151 158 157 158 161 162 174 184 183 181 172 178 182 175 174 167 155 160 169 141 128 103 105 117 137
194 219 237 250 233 241 249 283 289 331 196 202 226 252 259 246 221 166 159 153 156 161 162 164 175 177 178 179 180 182 181 179 177 169 165 168 164 133 107 110 148 165 150 169
177 190 223 247 254 282 246 267 262 240 243 118 183 228 271 286 211 166 158 160 162 162 164 172 174 182 176 179 184 187 182 179 172 168 160 155 150 154 154 169 162 133 136 167
232 180 196 214 229 241 268 237 244 240 213 220 236 248 256 266 153 155 155 160 162 161 166 167 171 179 175 180 180 180 178 170 167 163 154 152 165 154 168 176 143 106 89 85